GW7027 Weather Reports


time (UTC)temp
F
wind
direction
speed
knots
gust
knots
rain 1hr
in
rain 24hr
in
rain mn
in
humidity
%
barometer
mb
20260505040440 65 346 2.6 2.6 0.00 0.00 0.00 61
20260505035937 66 300 3.5 4.3 0.00 0.00 0.00 59
20260505035432 66 302 2.6 3.5 0.00 0.00 0.00 57
20260505034930 66 16 0.9 1.7 0.00 0.00 0.00 57
20260505034426 66 9 2.6 2.6 0.00 0.00 0.00 57
20260505033924 67 345 1.7 3.5 0.00 0.00 0.00 57
20260505033420 67 336 3.5 5.2 0.00 0.00 0.00 56
20260505032918 67 354 2.6 3.5 0.00 0.00 0.00 56
20260505032415 67 354 3.5 4.3 0.00 0.00 0.00 55
20260505031912 68 4 5.2 5.2 0.00 0.00 0.00 54
20260505031409 68 84 4.3 4.3 0.00 0.00 0.00 53
20260505030906 69 23 1.7 2.6 0.00 0.00 0.00 53
20260505030401 69 80 2.6 2.6 0.00 0.00 0.00 52
20260505025857 69 355 1.7 2.6 0.00 0.00 0.00 51
20260505025355 69 337 3.5 5.2 0.00 0.00 0.00 50
20260505024854 70 314 6.1 7.8 0.00 0.00 0.00 50
20260505024351 69 4 5.2 7.8 0.00 0.00 0.00 50
20260505023847 70 332 2.6 8.7 0.00 0.00 0.00 50
20260505023344 70 334 4.3 8.7 0.00 0.00 0.00 50
20260505022842 70 320 9.6 9.6 0.00 0.00 0.00 50
20260505022338 70 359 6.1 8.7 0.00 0.00 0.00 49
20260505021836 70 339 6.1 10.4 0.00 0.00 0.00 49
20260505021332 71 325 7.8 10.4 0.00 0.00 0.00 47
20260505020828 71 312 4.3 9.6 0.00 0.00 0.00 47
20260505020324 71 325 5.2 7.8 0.00 0.00 0.00 46
20260505015821 72 353 6.1 10.4 0.00 0.00 0.00 45
20260505015318 72 332 7.0 11.3 0.00 0.00 0.00 44
20260505014815 72 325 7.0 10.4 0.00 0.00 0.00 44
20260505014312 73 321 8.7 12.2 0.00 0.00 0.00 43
20260505013808 74 325 9.6 10.4 0.00 0.00 0.00 42
20260505013306 74 325 8.7 12.2 0.00 0.00 0.00 42
20260505012804 75 350 7.8 11.3 0.00 0.00 0.00 40
20260505012304 76 316 7.0 9.6 0.00 0.00 0.00 40
20260505011757 77 330 5.2 9.6 0.00 0.00 0.00 41
20260505011255 78 325 7.0 9.6 0.00 0.00 0.00 40
20260505010750 79 323 5.2 10.4 0.00 0.00 0.00 39
20260505010246 80 299 6.1 7.8 0.00 0.00 0.00 35
20260505005743 80 322 7.8 11.3 0.00 0.00 0.00 35
20260505005240 80 324 6.1 8.7 0.00 0.00 0.00 34
20260505004737 80 300 7.8 8.7 0.00 0.00 0.00 32
20260505004233 80 324 7.0 10.4 0.00 0.00 0.00 36
20260505003731 80 300 5.2 7.8 0.00 0.00 0.00 35
20260505003228 81 337 7.0 7.8 0.00 0.00 0.00 36
20260505002725 81 331 7.0 8.7 0.00 0.00 0.00 34
20260505002222 81 301 5.2 6.1 0.00 0.00 0.00 32
20260505001719 81 301 5.2 6.1 0.00 0.00 0.00 32
20260505001217 81 311 7.0 7.0 0.00 0.00 0.00 32
20260505000714 81 311 7.0 7.0 0.00 0.00 0.00 32
20260505000212 81 311 7.0 8.7 0.00 0.00 0.00 31
20260504235708 82 314 7.8 10.4 0.00 0.00 0.00 32
20260504235204 81 306 10.4 11.3 0.00 0.00 0.00 32
20260504234701 81 267 4.3 6.1 0.00 0.00 0.00 31
20260504234158 82 243 3.5 7.8 0.00 0.00 0.00 31
20260504233654 81 346 2.6 5.2 0.00 0.00 0.00 31
20260504233150 81 326 6.1 11.3 0.00 0.00 0.00 31
20260504232648 81 301 4.3 7.8 0.00 0.00 0.00 32
20260504232145 81 323 7.8 13.0 0.00 0.00 0.00 31
20260504231642 81 291 8.7 9.6 0.00 0.00 0.00 32
20260504231138 81 303 7.8 11.3 0.00 0.00 0.00 32
20260504230634 81 341 7.0 9.6 0.00 0.00 0.00 31
20260504230133 81 299 7.8 9.6 0.00 0.00 0.00 31
20260504225631 82 298 7.8 10.4 0.00 0.00 0.00 31
20260504225127 82 310 10.4 11.3 0.00 0.00 0.00 30
20260504224624 82 297 9.6 10.4 0.00 0.00 0.00 30
20260504224120 82 340 3.5 7.8 0.00 0.00 0.00 30
20260504223617 82 300 7.8 9.6 0.00 0.00 0.00 31
20260504223113 82 303 3.5 8.7 0.00 0.00 0.00 29
20260504222610 82 288 4.3 5.2 0.00 0.00 0.00 30
20260504222108 82 177 1.7 2.6 0.00 0.00 0.00 30
20260504221605 82 271 0.9 6.1 0.00 0.00 0.00 31
20260504221102 82 93 2.6 5.2 0.00 0.00 0.00 31
20260504220558 82 317 4.3 9.6 0.00 0.00 0.00 32
20260504220055 82 323 3.5 7.0 0.00 0.00 0.00 31
20260504215552 81 330 0.0 2.6 0.00 0.00 0.00 32
20260504215049 80 324 3.5 4.3 0.00 0.00 0.00 32
20260504214544 80 345 5.2 9.6 0.00 0.00 0.00 32
20260504214042 80 347 6.1 7.8 0.00 0.00 0.00 32
20260504213538 81 97 1.7 4.3 0.00 0.00 0.00 32
20260504213035 80 332 3.5 3.5 0.00 0.00 0.00 35
20260504212531 79 334 4.3 6.1 0.00 0.00 0.00 33
20260504212028 79 340 3.5 6.1 0.00 0.00 0.00 33
20260504211525 79 339 2.6 7.8 0.00 0.00 0.00 34
20260504211022 80 322 8.7 10.4 0.00 0.00 0.00 33
20260504210519 80 341 2.6 3.5 0.00 0.00 0.00 34
20260504210016 78 333 3.5 6.1 0.00 0.00 0.00 35
20260504205514 78 340 4.3 7.8 0.00 0.00 0.00 36
20260504205012 79 334 5.2 8.7 0.00 0.00 0.00 35
20260504204509 79 319 0.9 4.3 0.00 0.00 0.00 37
20260504204008 78 356 3.5 7.8 0.00 0.00 0.00 37
20260504203506 78 1 6.1 8.7 0.00 0.00 0.00 37
20260504203002 78 342 4.3 10.4 0.00 0.00 0.00 37
20260504202458 77 335 4.3 5.2 0.00 0.00 0.00 38
20260504201955 77 344 5.2 8.7 0.00 0.00 0.00 38
20260504201452 78 7 7.0 7.8 0.00 0.00 0.00 37
20260504200950 78 324 4.3 7.8 0.00 0.00 0.00 38
20260504200446 77 354 3.5 6.1 0.00 0.00 0.00 37
20260504195943 76 315 5.2 7.0 0.00 0.00 0.00 37
20260504195439 76 314 6.1 6.1 0.00 0.00 0.00 38
20260504194936 76 355 2.6 5.2 0.00 0.00 0.00 38
20260504194432 76 283 5.2 7.8 0.00 0.00 0.00 38
20260504193928 76 346 4.3 6.1 0.00 0.00 0.00 37
20260504193425 76 296 6.1 10.4 0.00 0.00 0.00 40
20260504192924 75 302 7.0 8.7 0.00 0.00 0.00 41
20260504192421 75 351 4.3 9.6 0.00 0.00 0.00 41
20260504191920 75 343 6.1 8.7 0.00 0.00 0.00 41
20260504191418 75 343 6.1 11.3 0.00 0.00 0.00 41
20260504190912 75 274 3.5 7.0 0.00 0.00 0.00 42
20260504190408 75 283 6.1 7.8 0.00 0.00 0.00 42
20260504185905 75 293 3.5 8.7 0.00 0.00 0.00 42
20260504185403 75 290 7.8 11.3 0.00 0.00 0.00 41
20260504184858 75 268 3.5 7.8 0.00 0.00 0.00 44
20260504184354 75 292 2.6 5.2 0.00 0.00 0.00 45
20260504183850 76 192 2.6 2.6 0.00 0.00 0.00 45
20260504183348 76 179 0.9 1.7 0.00 0.00 0.00 45
20260504182845 74 0 0.9 1.7 0.00 0.00 0.00 47
20260504182343 74 96 2.6 4.3 0.00 0.00 0.00 46
20260504181839 73 293 1.7 3.5 0.00 0.00 0.00 47
20260504181337 74 261 0.9 2.6 0.00 0.00 0.00 47
20260504180835 74 342 1.7 2.6 0.00 0.00 0.00 48
20260504180333 72 45 0.9 2.6 0.00 0.00 0.00 49
20260504175832 72 49 0.9 1.7 0.00 0.00 0.00 49
20260504175328 72 298 1.7 2.6 0.00 0.00 0.00 48
20260504174826 72 88 1.7 2.6 0.00 0.00 0.00 50
20260504174323 72 252 1.7 1.7 0.00 0.00 0.00 49
20260504173820 72 275 2.6 2.6 0.00 0.00 0.00 49
20260504173317 71 307 0.9 1.7 0.00 0.00 0.00 49
20260504172814 71 44 1.7 1.7 0.00 0.00 0.00 49
20260504172310 71 291 2.6 3.5 0.00 0.00 0.00 50
20260504171806 72 259 1.7 2.6 0.00 0.00 0.00 49
20260504171304 72 58 0.9 1.7 0.00 0.00 0.00 51
20260504170801 70 89 0.0 1.7 0.00 0.00 0.00 52
20260504170257 70 321 1.7 2.6 0.00 0.00 0.00 53
20260504160216 64 70 2.6 2.6 0.00 0.00 0.00 64
20260504151144 59 72 2.6 3.5 0.00 0.00 0.00 76
20260504150641 58 79 1.7 3.5 0.00 0.00 0.00 78
20260504150138 57 61 0.9 5.2 0.00 0.00 0.00 78
20260504141107 54 70 3.5 4.3 0.00 0.00 0.00 86
20260504140603 53 69 2.6 3.5 0.00 0.00 0.00 88
20260504130527 50 72 2.6 4.3 0.00 0.00 0.00 91
20260504110415 52 317 0.9 2.6 0.00 0.00 0.00 87
20260504100332 53 39 1.7 3.5 0.00 0.00 0.00 85
20260504081725 55 46 1.7 3.5 0.00 0.00 0.00 84
20260504081222 56 0 1.7 2.6 0.00 0.00 0.00 84
20260504080718 56 41 2.6 3.5 0.00 0.00 0.00 82
20260504080215 57 56 1.7 3.5 0.00 0.00 0.00 81
20260504070142 58 68 2.6 4.3 0.00 0.00 0.00 78
20260504050531 64 8 2.6 3.5 0.00 0.00 0.00 62
20260504045525 65 6 2.6 3.5 0.00 0.00 0.00 60
20260504045020 66 4 1.7 2.6 0.00 0.00 0.00 58
20260504044518 67 29 1.7 1.7 0.00 0.00 0.00 55
20260504044015 68 5 1.7 2.6 0.00 0.00 0.00 53
20260504043511 68 13 1.7 2.6 0.00 0.00 0.00 51
20260504043009 68 9 1.7 2.6 0.00 0.00 0.00 51
20260504042506 69 3 1.7 1.7 0.00 0.00 0.00 52
20260504042003 69 358 1.7 2.6 0.00 0.00 0.00 49
20260504041459 69 9 1.7 2.6 0.00 0.00 0.00 49
20260504040954 69 0 1.7 1.7 0.00 0.00 0.00 50